Wind_Speed
12 13 14 14 15 15 16 16 17 18 18 19 19 20 20 20 21 21 22 22 22 22 23 23 23 23 23 24 24 25 25 25 26 27 27 27 27 26 26 28 29 30 31
15 15 16 17 17 18 19 19 20 21 22 22 23 23 23 23 24 24 24 25 25 25 25 25 26 26 26 26 26 27 27 27 27 28 28 29 29 28 28 29 30 30 32
17 18 19 19 20 21 22 22 23 24 25 25 26 26 26 26 26 27 27 27 28 28 28 28 28 28 28 28 28 28 28 28 29 29 30 30 30 30 30 30 31 31 32
19 20 21 22 23 24 24 25 26 26 27 28 28 29 29 28 29 29 29 30 30 30 30 29 30 30 31 31 31 31 31 31 31 31 32 32 32 32 32 32 32 32 32
21 22 24 25 25 26 27 28 28 29 30 31 31 31 31 31 31 31 32 32 32 32 32 32 32 32 33 33 34 33 33 33 34 33 33 34 35 35 34 34 34 34 34
23 24 25 26 27 28 29 29 30 31 32 33 32 32 33 33 33 34 34 34 34 34 34 34 35 35 35 36 36 36 36 36 36 36 36 36 37 37 37 37 36 36 36
25 26 27 28 29 30 31 31 32 33 34 34 34 34 34 35 36 37 37 37 37 36 37 38 38 39 38 39 39 39 39 39 39 39 39 39 39 39 40 39 38 37 37
28 29 30 31 32 33 33 34 35 36 36 37 37 37 37 38 39 40 41 42 41 41 41 42 42 42 42 43 43 42 42 42 43 43 42 42 42 42 42 42 41 40 39
33 33 33 34 35 36 36 37 38 39 39 40 40 41 41 42 42 43 45 45 46 46 46 46 46 46 46 47 47 46 46 45 45 45 45 44 44 44 44 44 43 42 41
35 36 36 36 37 38 39 40 41 42 42 43 43 44 45 45 46 47 49 50 51 50 50 50 50 49 50 51 51 51 49 48 49 49 48 47 46 46 46 45 45 44 43
35 36 37 37 39 40 41 42 43 44 44 45 47 48 48 49 50 51 53 53 54 54 54 53 53 53 53 54 55 54 53 52 52 52 51 49 49 48 48 47 47 46 45
36 37 39 39 40 42 43 44 44 45 47 48 49 51 52 52 53 54 56 57 57 58 57 57 57 57 57 57 58 57 57 57 56 55 54 53 52 51 50 49 49 48 47
38 39 40 40 42 43 44 45 46 47 49 50 52 53 54 55 56 57 58 60 61 62 62 62 62 62 62 61 61 60 60 60 59 58 57 56 54 53 52 51 50 49 48
37 38 39 41 42 44 45 47 48 50 51 52 54 56 57 58 60 61 63 64 65 65 66 66 66 65 65 65 65 64 63 63 62 61 60 59 57 55 54 53 52 51 50
39 40 41 42 44 45 47 48 50 52 54 56 58 59 61 62 64 66 67 68 69 69 70 70 69 69 69 68 68 67 66 65 64 63 62 60 58 57 56 54 53 52 51
41 42 43 44 46 48 49 51 53 56 58 60 62 63 65 66 68 69 70 70 70 71 71 71 70 69 69 68 68 67 66 66 64 63 61 60 58 57 55 53 52 52 51
43 44 45 47 49 51 53 55 57 59 61 62 64 65 67 68 69 69 69 69 69 68 68 67 66 65 64 64 63 62 62 62 61 60 58 57 57 56 55 54 52 51 49
46 47 49 51 53 54 56 58 59 61 62 63 64 65 65 65 65 65 65 64 63 63 62 61 60 59 58 57 55 55 55 55 55 54 54 54 54 53 52 51 51 49 48
48 50 51 53 55 56 58 59 61 61 62 62 62 62 62 60 59 58 57 57 57 56 55 55 53 52 50 49 48 48 47 47 47 48 48 47 47 48 48 47 47 46 45
51 53 54 56 57 58 59 60 60 60 60 59 58 57 55 52 51 50 50 49 48 48 47 46 45 44 42 41 41 41 41 40 39 39 39 40 40 41 41 41 43 43 42
54 55 56 57 58 58 58 57 56 55 53 51 50 48 46 45 44 43 42 41 40 40 39 37 37 36 35 35 34 33 32 31 30 30 31 32 33 34 35 35 36 37 37
55 56 56 56 56 55 53 52 51 49 47 45 44 43 41 40 39 38 38 36 35 33 32 30 28 28 28 28 26 25 23 22 22 22 24 26 27 29 30 31 32 33 33
54 54 53 52 51 50 48 47 45 43 42 40 38 37 36 35 34 33 32 31 29 28 26 24 23 23 22 20 19 18 18 18 19 19 21 23 24 26 27 28 29 29 30
50 49 48 48 47 45 43 41 40 38 37 37 35 33 32 31 29 28 27 25 24 22 20 20 18 16 15 13 13 13 14 15 17 18 19 20 21 22 23 24 25 26 27
46 45 44 43 41 39 37 36 35 35 34 33 31 29 28 27 25 24 23 22 21 20 19 17 15 13 11 11 12 13 14 15 16 17 19 19 19 20 21 23 24 25 26
42 41 39 37 35 33 32 32 31 30 29 28 26 25 23 22 22 21 20 20 19 18 16 14 13 12 11 10 11 11 12 13 14 15 16 16 17 19 20 21 22 23 24
Wind_Direction
236 241 245 250 254 256 259 262 265 268 271 274 275 276 278 279 281 283 285 285 286 287 288 290 291 292 292 293 293 293 292 292 291 290 289 288 287 285 282 280 279 277 274
244 248 252 255 258 260 263 266 268 271 273 275 277 277 279 281 282 283 285 285 286 286 288 289 290 291 291 292 292 292 291 291 290 289 289 288 287 286 285 283 280 279 277
251 254 258 260 262 265 268 269 272 274 275 277 278 279 281 282 283 284 285 285 286 286 287 288 289 289 289 290 291 291 290 289 288 288 289 289 287 286 285 284 282 280 279
259 261 263 265 268 270 271 273 275 277 278 279 280 281 282 283 284 285 286 286 286 286 286 287 288 288 289 289 290 290 289 288 287 287 288 287 287 286 285 284 283 282 281
263 265 266 268 270 272 273 275 277 279 280 281 281 283 283 284 285 285 286 286 286 286 286 286 288 288 288 288 288 289 289 288 287 287 287 287 286 285 285 284 284 283 283
266 266 268 270 272 274 275 277 279 280 281 282 283 284 284 285 285 285 285 285 285 285 285 286 287 288 288 287 287 287 288 287 287 287 286 287 286 285 285 285 284 283 283
269 270 271 272 274 276 278 279 280 281 282 283 284 284 285 286 286 285 285 285 284 285 284 284 285 286 286 286 285 285 285 286 286 286 286 286 286 285 284 284 283 283 283
269 271 272 274 276 277 278 279 280 281 283 284 284 285 286 286 286 285 285 284 285 285 285 285 284 284 285 285 284 284 284 284 285 285 285 285 284 284 284 283 283 283 283
269 270 272 274 276 277 279 281 281 282 283 284 285 285 286 285 284 284 285 285 285 284 285 285 284 283 283 284 284 283 283 283 283 283 283 283 283 283 283 282 282 282 283
270 270 273 275 276 278 281 283 283 283 284 285 285 285 286 286 285 284 285 285 284 283 284 284 283 282 283 283 282 282 282 282 282 283 282 281 281 281 281 281 281 281 282
272 273 275 277 278 279 281 282 283 284 284 285 286 286 286 286 285 285 285 285 284 283 283 283 282 281 281 281 281 281 281 280 280 281 281 280 280 280 280 280 279 279 280
275 275 276 278 279 280 281 282 283 284 284 285 285 285 286 286 285 285 285 284 284 284 284 283 282 281 281 280 280 280 279 278 279 279 278 278 278 277 278 278 277 277 277
277 277 277 279 282 283 284 285 285 285 285 286 286 286 286 286 285 285 284 284 283 283 283 282 281 281 280 279 279 278 277 276 277 276 276 277 276 276 276 276 275 274 275
282 284 285 284 284 285 286 286 286 286 287 287 287 287 287 286 286 285 285 284 284 283 282 282 281 280 279 279 278 277 276 275 274 274 275 274 274 273 273 274 273 272 272
286 287 287 287 287 287 288 288 288 289 289 288 288 288 287 286 286 285 285 284 283 283 282 281 280 279 278 277 276 275 275 274 273 273 272 272 271 270 271 270 269 269 270
288 288 289 289 289 290 290 290 290 290 290 290 289 289 288 288 287 287 286 286 285 284 283 282 280 279 278 276 275 274 273 272 272 271 270 269 268 268 268 266 266 267 268
289 290 290 291 291 292 292 292 292 292 292 291 291 291 290 290 290 289 288 287 287 286 284 284 282 281 280 278 276 274 272 271 270 269 267 266 266 264 263 263 263 263 264
291 292 293 293 293 294 294 294 294 293 293 293 293 292 292 292 291 291 290 289 288 287 286 285 284 283 281 279 276 274 272 270 268 267 265 264 262 261 260 260 260 259 260
294 295 295 296 296 296 296 296 295 295 295 295 294 294 294 294 293 293 292 292 291 289 288 287 286 284 282 279 276 274 272 270 267 265 263 261 260 258 258 258 257 256 257
297 297 297 297 297 297 297 297 297 297 297 297 297 296 296 296 296 296 296 296 294 293 291 288 286 284 282 279 276 274 272 269 265 262 260 257 257 256 256 256 255 255 255
298 298 298 298 298 298 298 298 299 299 299 299 299 299 299 299 300 301 300 300 299 298 295 292 289 286 282 279 276 273 269 267 262 258 256 254 254 254 254 253 252 252 253
299 299 299 299 299 299 299 299 300 300 300 300 301 301 302 302 303 303 303 304 304 303 300 296 293 289 286 280 274 270 266 260 255 253 253 253 253 253 252 251 250 251 252
299 300 300 300 300 300 300 300 301 301 302 302 303 303 303 305 306 306 307 308 309 308 304 301 298 294 289 281 273 267 259 256 255 254 253 252 253 252 251 252 253 254 254
301 300 300 300 300 300 300 301 302 302 303 304 304 304 305 307 308 310 310 312 314 313 310 308 306 304 295 285 278 266 258 256 255 254 253 253 253 253 253 254 255 256 256
301 301 301 301 302 302 302 303 303 303 304 305 305 306 307 308 310 312 314 312 313 313 314 313 310 305 301 291 282 271 266 261 257 255 256 255 256 257 259 259 258 258 259
302 302 303 304 304 304 304 305 306 307 307 307 307 308 309 310 312 313 313 314 315 315 313 312 313 313 306 293 284 278 271 265 261 258 258 259 259 260 262 263 261 261 260
Height
5859 5860 5861 5862 5862 5862 5862 5862 5862 5862 5862 5861 5861 5860 5859 5858 5857 5856 5854 5853 5852 5850 5849 5847 5846 5844 5842 5840 5838 5836 5834 5832 5830 5828 5826 5825 5824 5822 5821 5820 5819 5818 5817
5856 5857 5858 5858 5858 5858 5858 5858 5858 5857 5857 5856 5855 5854 5853 5852 5851 5850 5848 5847 5845 5844 5842 5841 5839 5837 5835 5834 5832 5829 5827 5825 5823 5821 5819 5817 5816 5814 5813 5812 5810 5809 5808
5853 5853 5853 5854 5854 5854 5853 5853 5852 5852 5851 5850 5849 5848 5847 5846 5844 5843 5841 5840 5838 5836 5835 5833 5832 5830 5828 5826 5824 5822 5820 5818 5815 5813 5811 5809 5807 5806 5804 5803 5802 5800 5799
5848 5848 5848 5848 5848 5848 5848 5847 5846 5846 5845 5844 5843 5842 5840 5839 5837 5835 5833 5832 5830 5828 5827 5825 5823 5821 5819 5817 5815 5813 5811 5809 5807 5805 5802 5800 5798 5796 5795 5794 5792 5791 5789
5843 5843 5843 5843 5843 5842 5841 5841 5840 5839 5838 5837 5836 5834 5833 5831 5829 5827 5825 5823 5821 5820 5818 5816 5814 5812 5810 5808 5806 5803 5801 5799 5797 5795 5793 5791 5788 5786 5785 5783 5782 5780 5779
5837 5837 5837 5836 5836 5835 5834 5833 5832 5831 5830 5829 5828 5826 5824 5822 5820 5818 5816 5814 5812 5810 5808 5806 5804 5802 5800 5798 5795 5793 5791 5789 5786 5785 5783 5781 5778 5776 5774 5773 5771 5770 5768
5831 5831 5830 5829 5828 5828 5826 5825 5824 5822 5821 5820 5818 5816 5815 5813 5810 5808 5805 5803 5802 5800 5798 5795 5793 5791 5789 5786 5784 5782 5780 5777 5775 5773 5772 5769 5767 5765 5763 5761 5760 5758 5756
5823 5823 5823 5822 5821 5819 5818 5816 5815 5813 5812 5810 5808 5806 5804 5802 5799 5797 5794 5792 5790 5789 5786 5783 5781 5779 5776 5774 5771 5770 5768 5765 5763 5761 5760 5758 5755 5753 5750 5749 5747 5746 5744
5815 5815 5814 5813 5812 5810 5809 5807 5805 5803 5801 5799 5797 5795 5793 5790 5787 5785 5781 5779 5777 5776 5773 5770 5768 5766 5764 5760 5757 5756 5754 5752 5750 5748 5746 5745 5742 5740 5738 5736 5735 5733 5732
5806 5805 5804 5803 5802 5800 5798 5796 5794 5792 5790 5788 5785 5782 5780 5777 5774 5771 5768 5765 5763 5761 5758 5756 5754 5751 5749 5745 5742 5740 5739 5738 5735 5733 5732 5730 5728 5726 5724 5722 5721 5719 5718
5797 5795 5794 5793 5791 5790 5788 5786 5783 5781 5778 5775 5772 5769 5766 5763 5760 5757 5753 5750 5747 5744 5742 5740 5737 5735 5733 5730 5726 5725 5724 5722 5719 5717 5716 5715 5713 5712 5710 5709 5707 5705 5704
5787 5786 5784 5783 5781 5779 5776 5774 5771 5768 5765 5762 5759 5755 5752 5748 5745 5741 5737 5734 5730 5727 5725 5722 5720 5717 5714 5712 5710 5708 5706 5703 5701 5700 5700 5699 5698 5696 5695 5694 5693 5691 5690
5777 5775 5773 5771 5769 5767 5764 5761 5758 5755 5752 5748 5744 5741 5737 5732 5728 5724 5721 5716 5712 5708 5706 5703 5701 5698 5695 5693 5691 5689 5686 5684 5683 5682 5682 5682 5681 5679 5678 5678 5677 5676 5675
5768 5765 5763 5760 5758 5755 5752 5748 5745 5741 5737 5733 5729 5724 5720 5715 5710 5706 5701 5697 5693 5688 5685 5682 5680 5677 5673 5671 5669 5667 5666 5664 5663 5662 5662 5663 5662 5662 5661 5661 5660 5660 5660
5757 5754 5752 5749 5746 5742 5738 5734 5730 5726 5721 5717 5712 5707 5702 5698 5692 5686 5681 5676 5671 5667 5662 5659 5657 5654 5651 5648 5646 5644 5643 5642 5642 5642 5642 5642 5643 5643 5643 5644 5644 5644 5644
5746 5743 5740 5736 5732 5728 5724 5720 5715 5710 5705 5698 5693 5687 5682 5676 5671 5665 5659 5654 5648 5642 5638 5635 5632 5628 5626 5624 5622 5620 5620 5619 5619 5620 5620 5622 5623 5624 5625 5626 5626 5627 5628
5734 5730 5726 5722 5718 5713 5708 5703 5698 5693 5686 5680 5674 5667 5661 5654 5648 5642 5636 5630 5625 5618 5613 5610 5607 5604 5601 5599 5598 5597 5597 5597 5597 5598 5599 5601 5602 5604 5606 5607 5609 5610 5612
5721 5717 5712 5708 5703 5697 5692 5686 5680 5674 5668 5661 5654 5647 5640 5634 5627 5620 5613 5608 5602 5597 5591 5587 5584 5581 5579 5577 5576 5575 5575 5575 5576 5577 5579 5581 5583 5584 5586 5589 5592 5594 5596
5707 5702 5697 5692 5686 5680 5674 5668 5661 5655 5648 5641 5634 5627 5621 5614 5608 5601 5593 5587 5582 5577 5572 5567 5563 5561 5558 5557 5556 5556 5556 5556 5557 5559 5561 5563 5565 5567 5570 5573 5576 5578 5581
5692 5687 5682 5676 5670 5663 5657 5650 5643 5637 5630 5623 5616 5609 5603 5597 5591 5584 5577 5570 5564 5559 5554 5550 5546 5543 5541 5540 5540 5540 5540 5540 5542 5543 5545 5548 5550 5553 5555 5558 5561 5564 5567
5677 5671 5665 5659 5653 5646 5640 5633 5626 5620 5613 5606 5600 5593 5587 5581 5576 5569 5563 5557 5551 5545 5540 5536 5533 5530 5528 5527 5526 5526 5526 5528 5529 5531 5533 5535 5538 5540 5543 5546 5549 5552 5555
5661 5655 5649 5642 5636 5630 5624 5617 5611 5605 5598 5593 5587 5581 5575 5569 5563 5557 5552 5546 5540 5534 5530 5526 5522 5520 5518 5516 5516 5516 5517 5518 5520 5522 5524 5526 5528 5531 5533 5536 5538 5541 5543
5645 5639 5632 5627 5621 5615 5609 5603 5597 5591 5586 5580 5575 5569 5564 5558 5553 5547 5542 5537 5531 5526 5522 5518 5515 5512 5510 5509 5508 5509 5510 5512 5514 5515 5517 5519 5520 5522 5524 5527 5529 5531 5533
5630 5624 5618 5613 5607 5601 5596 5590 5585 5580 5574 5569 5564 5559 5554 5549 5544 5539 5534 5529 5525 5520 5516 5513 5510 5507 5506 5504 5504 5504 5505 5507 5508 5510 5511 5512 5514 5515 5517 5518 5520 5522 5523
5616 5610 5605 5599 5594 5589 5584 5579 5574 5569 5564 5560 5555 5550 5545 5541 5536 5532 5528 5524 5520 5516 5513 5510 5507 5505 5503 5502 5501 5501 5501 5502 5503 5505 5506 5507 5508 5509 5510 5511 5512 5513 5515
5603 5598 5593 5588 5583 5578 5574 5569 5565 5560 5555 5551 5547 5543 5538 5534 5530 5526 5523 5519 5516 5512 5509 5507 5504 5502 5501 5499 5498 5498 5498 5499 5499 5500 5500 5501 5502 5503 5503 5504 5504 5505 5506